NOAA 17 DEB, 48183

Orbit data source: Space-Track

NOAA 17 DEB, 48183 is space debris in SSO originally from a launch on Mon, 24 Jun 2002 UTC launched from the Air Force Western Test Range (AFWTR). Debris objects in space refer to the collection of defunct objects orbiting the Earth. Examples of debris include non-operational satellites, rocket bodies, and fragments generated from explosions, collisions, or faulty payload assembly.

Loading next visibility...
Identifier
48183, 2002-032Y
Orbit
SSO
Country
Flag of USUS
Related business
Manufacturer
Unknown
Mission
Spacecraft
Bus & Motor
Unknown
Mass
Unknown
Launch date (UTC)
2002-06-24 (23 years ago)
Launch vehicle
Unknown
Launch site
Air Force Western Test Range (AFWTR)
Object type
Payload
Rocket body
Debris
Shape & HBR
Unknown shape, 0.1 m
Radar Cross Section
Small (<0.1 m²)

Expand to show TLE details & history
Last TLE update: 1 day ago

TLE from 1 day ago
0 NOAA 17 DEB
1 48183U 02032Y   25349.40445282  .00006732  00000-0  15559-2 0  9998
2 48183  98.7742 337.4984 0011988  16.7847 343.3744 14.55483884247080
Epoch: 2025-12-15T09:42Z
TLE epoch observation values (Epoch: 2025-12-15T09:42:24.723Z)
Latitude
0.00004°
Longitude
107.59188°
Altitude
702.614 km
Speed
7.509 km/s
True Right ascension
22h 29m 59s
True Declination
0° 00' 00"
Sunlit
Object was in daylight at epoch
Visualization orbit readout
Latitude
Unknown
Longitude
Unknown
Altitude
Unknown
Speed
Unknown
Apparent Right ascension
Unknown
Apparent Declination
Unknown
Sunlit
N/A
Visualization observer readout
Local Sidereal Time
08:21:17
Azimuth
Unknown
Elevation
Unknown
Doppler factor
Unknown
Orbital elements
Apogee altitude
713.399 km
Perigee altitude
696.417 km
Semi-major axis
7,083.045 km
Eccentricity
0.0012
Inclination
98.7742°
RAAN
337.4984°
Arg. of periapsis
16.7847°
True anomaly
343.33504°
Mean anomaly
343.3744°
Eccentric anomaly
343.35473°
Mean motion
3.64094 °/min
Orbital period
98.88 mins
BSTAR
0.0015559
Loading maneuver chart data...
Computing Atmospheric mass density...
Loading historical data...
Loading historical data...
Loading historical data...
Loading historical data...
Loading historical data...
Loading historical data...
Loading historical data...

Documentation

Showing up to 5 results
|